TimeEDT,TemperatureF,Dew PointF,Humidity,Sea Level PressureIn,VisibilityMPH,Wind Direction,Wind SpeedMPH,Gust SpeedMPH,PrecipitationIn,Events,Conditions,WindDirDegrees,DateUTC
12:53 AM,75.0,72.0,90,30.03,6.0,Calm,Calm,-,N/A,,Clear,0,2013-07-07 04:53:00
1:17 AM,75.2,71.6,89,30.04,2.5,Calm,Calm,-,N/A,,Clear,0,2013-07-07 05:17:00
1:27 AM,73.4,71.6,94,30.04,4.0,Calm,Calm,-,N/A,,Clear,0,2013-07-07 05:27:00
1:53 AM,75.0,72.0,90,30.03,6.0,Calm,Calm,-,N/A,,Clear,0,2013-07-07 05:53:00
2:53 AM,73.9,72.0,93,30.03,5.0,Calm,Calm,-,N/A,,Scattered Clouds,0,2013-07-07 06:53:00
3:53 AM,73.9,72.0,93,30.02,6.0,Calm,Calm,-,N/A,,Mostly Cloudy,0,2013-07-07 07:53:00
4:53 AM,73.0,71.1,93,30.01,4.0,Calm,Calm,-,N/A,,Partly Cloudy,0,2013-07-07 08:53:00
5:41 AM,73.4,71.6,94,30.02,2.0,Calm,Calm,-,N/A,,Clear,0,2013-07-07 09:41:00
5:53 AM,73.0,71.1,93,30.01,3.0,Calm,Calm,-,N/A,,Clear,0,2013-07-07 09:53:00
6:53 AM,77.0,73.0,88,30.01,6.0,Calm,Calm,-,N/A,,Clear,0,2013-07-07 10:53:00
7:53 AM,81.0,73.9,79,30.02,10.0,SSW,3.5,-,N/A,,Clear,210,2013-07-07 11:53:00
8:53 AM,84.0,73.9,72,30.01,10.0,West,5.8,-,N/A,,Clear,260,2013-07-07 12:53:00
9:53 AM,84.9,73.9,69,30.00,10.0,SW,4.6,-,N/A,,Clear,220,2013-07-07 13:53:00
10:53 AM,86.0,73.9,67,29.99,10.0,Variable,3.5,-,N/A,,Clear,0,2013-07-07 14:53:00
11:53 AM,89.1,73.9,61,29.98,10.0,West,5.8,-,N/A,,Clear,260,2013-07-07 15:53:00
12:53 PM,91.0,73.0,55,29.96,10.0,WSW,5.8,-,N/A,,Partly Cloudy,240,2013-07-07 16:53:00
1:53 PM,91.0,73.0,55,29.94,10.0,South,8.1,-,N/A,,Partly Cloudy,180,2013-07-07 17:53:00
2:53 PM,91.9,71.1,50,29.93,10.0,SW,8.1,-,N/A,,Partly Cloudy,230,2013-07-07 18:53:00
3:53 PM,88.0,75.0,65,29.91,10.0,WSW,5.8,-,N/A,,Partly Cloudy,250,2013-07-07 19:53:00
4:53 PM,84.9,72.0,65,29.92,10.0,WSW,8.1,-,0.00,,Clear,240,2013-07-07 20:53:00
5:53 PM,88.0,72.0,59,29.90,10.0,Variable,4.6,-,N/A,,Partly Cloudy,0,2013-07-07 21:53:00
6:53 PM,87.1,73.9,65,29.90,10.0,Calm,Calm,-,N/A,,Clear,0,2013-07-07 22:53:00
7:53 PM,87.1,73.9,65,29.90,10.0,SW,5.8,-,N/A,,Clear,220,2013-07-07 23:53:00
8:53 PM,86.0,71.1,61,29.92,10.0,SW,4.6,-,N/A,,Clear,220,2013-07-08 00:53:00
9:53 PM,84.0,71.1,65,29.91,10.0,South,3.5,-,N/A,,Clear,190,2013-07-08 01:53:00
10:53 PM,82.0,66.9,60,29.93,10.0,WSW,9.2,-,N/A,,Clear,240,2013-07-08 02:53:00
11:53 PM,80.1,64.9,60,29.94,10.0,SW,6.9,-,N/A,,Clear,230,2013-07-08 03:53:00